Regional Weather Roundup
Issued by NWS

Home | Current Version | Previous Version | Text Only | Print | Product List | Glossary Off
Versions: 1 2 3 4 5 6 7 8 9 10 11 12 13 14 15 16 17 18 19 20 21 22 23 24 25 26 27 28 29 30 31 32 33 34 35 36 37 38 39 40 41 42 43 44 45 46 47 48 49 50

109
ASUS45 KTFX 050910
RWRMT
MONTANA REGIONAL WEATHER ROUNDUP
NATIONAL WEATHER SERVICE GREAT FALLS MT
300 AM MDT THU MAY 05 2016

NOTE: "FAIR" INDICATES FEW OR NO CLOUDS BELOW 12000 FEET WITH NO
SIGNIFICANT WEATHER AND/OR OBSTRUCTIONS TO VISIBILITY.

MTZ001>007-043-051000-
WEST OF THE DIVIDE

CITY           SKY/WX    TMP DP  RH WIND       PRES   REMARKS
KALISPELL      CLOUDY    56  46  69 NE6       29.89R
MISSOULA       MOCLDY    50  42  74 S9        29.88F
BUTTE          CLOUDY    48  35  60 E3        29.99S
MULLAN PASS    MOCLDY    44  43  96 NW7       30.00F
ANACONDA         N/A     50  34  53 S7        29.95F
DEER LODGE       N/A     46  34  61 CALM      29.95F
EUREKA           N/A     57  43  58 SE5G16    29.86S
HAMILTON         N/A     55  37  50 S8        29.89S
LIBBY            N/A     54  48  82 CALM      29.88R
PLAINS           N/A     57  46  66 SW5       29.88
$$

MTZ008-052>055-051000-
SOUTHWEST MONTANA

CITY           SKY/WX    TMP DP  RH WIND       PRES   REMARKS
BOZEMAN        CLOUDY    51  36  56 E6        29.95F
DILLON         CLOUDY    50  33  52 SW7       29.98R
ENNIS          CLEAR     50  32  50 S15       30.06S
THREE FORKS      N/A     49  21  33 CALM      29.95S
TWIN BRIDGES     N/A     49  31  50 E7        29.97S
$$

MTZ009-010-012-014-046-048-049-054-051000-
EAST SLOPES AND CENTRAL MONTANA

CITY           SKY/WX    TMP DP  RH WIND       PRES   REMARKS
CUT BANK       CLOUDY    53  38  56 CALM      29.87F
GREAT FALLS    CLOUDY    54  38  54 CALM      29.89F
MALMSTROM AFB  CLOUDY    48  41  75 SW7       29.89S
HELENA         MOCLDY    56  35  45 CALM      29.90F
CHOTEAU          N/A     54  37  54 S9        29.90S
$$

MTZ011-013-016-021-045-047-050-051-051000-
NORTH CENTRAL MONTANA

CITY           SKY/WX    TMP DP  RH WIND       PRES   REMARKS
HAVRE          CLOUDY    49  42  77 SW9       29.83S
LEWISTOWN      CLOUDY    51  34  52 SE6       29.92F
N BAR RANCH      N/A     54  32  43 W10       29.95F
$$

MTZ017>020-022>027-061-062-051000-
NORTHEAST MONTANA

CITY           SKY/WX    TMP DP  RH WIND       PRES   REMARKS
GLASGOW        PTCLDY    56  40  55 E13       29.82S
JORDAN           N/A     48  42  80 CALM      29.84S
SIDNEY         CLEAR     52  43  71 SW7       29.86F
WOLF POINT     PTCLDY    50  42  74 E3        29.83S
POPLAR           N/A     48  41  76 NW5       29.84S
SCOBEY           N/A     47  34  60 SW1       29.84S
$$

MTZ028>42-056>058-051000-
SOUTHCENTRAL AND SOUTHEAST MONTANA

CITY           SKY/WX    TMP DP  RH WIND       PRES   REMARKS
BAKER          CLEAR     52  41  66 SE8       29.92F
BILLINGS       PTCLDY    57  38  48 SW14      29.90F
LIVINGSTON     PTCLDY    48  34  58 W3        29.96F
MILES CITY     CLOUDY    58  43  57 S10       29.87F
EKALAKA          N/A     56  40  55 SE7       29.93
FORSYTH          N/A     59  43  55 E5        29.86S
LAUREL           N/A     51  37  58 W3        29.90F
ROUNDUP          N/A     55  35  46 S7        29.82F
$$

REGIONAL REPORTS...DAKOTAS

CITY           SKY/WX    TMP DP  RH WIND       PRES   REMARKS
WILLISTON      CLEAR     47  41  80 CALM      29.85F
MINOT          CLEAR     66  41  40 SW16      29.84F
DICKINSON      CLEAR     54  41  61 S13       29.91F
BEACH            N/A     54  41  62 S10       29.93F
CROSBY           N/A     55  41  58 S14       29.84F
TIOGA            N/A     57  39  51 SW13      29.91S
WATFORD CITY     N/A     57  41  54 S7        29.87F
BISMARCK       CLEAR     59  45  59 SW7       29.92F
GRAND FORKS    PTCLDY    53  32  44 S10       29.83F
FARGO          PTCLDY    51  31  46 S9        29.91S
BUFFALO SD       N/A     55  42  61 S5        29.90S
RAPID CITY     CLEAR     47  42  83 SE8       29.98F
$$

REGIONAL REPORTS...WYOMING/IDAHO/WASHINGTON

CITY           SKY/WX    TMP DP  RH WIND       PRES   REMARKS
GILLETTE       CLOUDY    54  40  59 S17       29.98S
SHERIDAN       MOCLDY    49  36  61 CALM      29.94F
BUFFALO WY     CLOUDY    56  28  34 SW8       30.01S
CODY           CLOUDY    61  28  29 SW8       29.99F
YELLOWSTONE LA   N/A     34  29  82 CALM      30.20F
IDAHO FALLS    CLOUDY    46  37  71 N5        29.99F
SALMON         CLOUDY    48  32  53 CALM      29.93R
BOISE          CLOUDY    66  44  45 NW13G20   29.87R
SPOKANE        CLOUDY    57  50  77 CALM      29.88F
$$

REGIONAL REPORTS...ALBERTA

CITY           SKY/WX    TMP DP  RH WIND       PRES   REMARKS
EDMONTON       LGT RAIN  55  34  44 NW12      29.86R
CALGARY        MOCLDY    59  41  51 N10       29.85S
LETHBRIDGE     PTCLDY    55  41  58 SW10      29.82F
MEDICINE HAT   CLEAR     57  41  54 S12       29.78F
WATERTON GATE    N/A     52  37  58 S8          N/A
MILK RIVER       N/A     50  43  76 NW7         N/A
ONEFOUR          N/A     54  41  62 N12         N/A
$$

REGIONAL REPORTS...SASKATCHEWAN

CITY           SKY/WX    TMP DP  RH WIND       PRES   REMARKS
SWIFT CURRENT  CLEAR     59  37  44 SW12G17   29.78F
REGINA         CLEAR     57  36  44 S7        29.77S
SASKATOON      MOCLDY    59  41  51 CALM      29.72F
CYPRESS HILLS    N/A     59  34  38 NW5         N/A
VAL MARIE        N/A     46  37  71 NE3         N/A
ROCKGLEN         N/A     61  34  36 S6          N/A
ASSINIBOIA       N/A     59  36  41 NW14G21     N/A
$$




USA.gov is the U.S. government's official web portal to all federal, state and local government web resources and services.